Voltar ao catálogo

FENGYUN 1C DEB

AtivoSSO
NORAD 37047·DEBRIS·🇨🇳 China

Lançado May 10, 1999 de Taiyuan Satellite Launch Center

Loading…

Próximas Passagens (próximas 24 horas)

TLE

EnvelhecendoSource: Space-Track

Época: Sep 9, 2026, 08:49 UTC

1 37047U 99025EEF 26252.36769044  .00001983  00000-0  14600-2 0  9996
2 37047  99.1232 302.8174 0231909 207.8387 151.0200 13.84768631658277

Acompanhe FENGYUN 1C DEB em tempo real com AllMySat

Download on the App Store